Simultaneous Nadir Overpasses (SNOs) Predictions

Prediction of SNOs between GOES-15 and TERRA Satellite Orbit:

Table of predicted SNOs for the next 14.0 days since TLE Epoch: 2/25/2023
Index Date Time (GOES-15) GOES-15 Lat,Lon TERRA Lat,Lon Distance(km) Time Diff (sec)
1 02/25/2023 06:32:52 0.04,-128.11 0.62,-125.47 301.15 80
2 02/25/2023 18:50:29 -0.05,-128.08 0.41,-130.40 263.11 80
3 02/27/2023 18:37:11 -0.05,-128.04 -0.35,-126.53 170.72 80
4 02/28/2023 06:54:58 0.06,-128.05 -0.66,-131.50 392.27 80
5 03/02/2023 06:41:40 0.06,-128.01 0.13,-127.64 41.22 80
6 03/04/2023 06:25:42 0.06,-127.96 0.94,-123.79 474.63 80
7 03/04/2023 18:43:19 -0.07,-127.92 0.08,-128.72 89.66 80
8 03/06/2023 18:30:00 -0.07,-127.87 -0.70,-124.85 343.67 80
9 03/07/2023 06:47:45 0.07,-127.88 -0.34,-129.81 219.58 80
10 03/09/2023 06:34:27 0.07,-127.83 0.47,-125.95 213.73 80
11 03/09/2023 18:52:03 -0.08,-127.79 0.54,-130.88 350.33 80
